Time,TemperatureF,DewpointF,PressureIn,WindDirection,WindDirectionDegrees,WindSpeedMPH,WindSpeedGustMPH,Humidity,HourlyPrecipIn,Conditions,Clouds,dailyrainin,SoftwareType,DateUTC
2013-01-31 00:00:00,34.9,24.3,30.29,North,355,0.0,4.0,65,0.01,,SKC,0.13,VWS V12.07,2013-01-31 07:00:00,
2013-01-31 00:30:00,32.5,23.8,30.31,NNW,330,0.0,0.0,70,0.00,,SKC,0.00,VWS V12.07,2013-01-31 07:30:00,
2013-01-31 01:00:00,35.0,23.7,30.29,WNW,290,0.0,6.0,63,0.00,,SKC,0.00,VWS V12.07,2013-01-31 08:00:00,
2013-01-31 01:30:00,34.9,24.0,30.28,NNW,348,0.0,1.0,64,0.00,,SKC,0.00,VWS V12.07,2013-01-31 08:30:00,
2013-01-31 02:00:00,34.7,23.8,30.28,West,263,0.0,1.0,64,0.00,,SKC,0.00,VWS V12.07,2013-01-31 09:00:00,
2013-01-31 02:30:00,34.6,23.3,30.28,West,263,0.0,0.0,63,0.00,,SKC,0.00,VWS V12.07,2013-01-31 09:30:00,
2013-01-31 03:00:00,34.3,23.4,30.28,West,263,0.0,0.0,64,0.00,,SKC,0.00,VWS V12.07,2013-01-31 10:00:00,
2013-01-31 03:30:00,34.1,23.2,30.31,West,262,0.0,0.0,64,0.00,,SKC,0.00,VWS V12.07,2013-01-31 10:30:00,
2013-01-31 04:01:00,33.7,23.2,30.31,West,263,0.0,0.0,65,0.00,,SKC,0.00,VWS V12.07,2013-01-31 11:01:00,
2013-01-31 04:30:00,33.2,22.7,30.31,West,263,0.0,0.0,65,0.00,,SKC,0.00,VWS V12.07,2013-01-31 11:30:00,
2013-01-31 05:00:00,33.8,22.9,30.30,West,263,0.0,0.0,64,0.00,,SKC,0.00,VWS V12.07,2013-01-31 12:00:00,
2013-01-31 05:30:00,33.4,23.3,30.29,West,263,0.0,0.0,66,0.00,,SKC,0.00,VWS V12.07,2013-01-31 12:30:00,
2013-01-31 06:01:00,33.1,23.0,30.31,West,263,0.0,0.0,66,0.00,,SKC,0.00,VWS V12.07,2013-01-31 13:01:00,
2013-01-31 06:30:00,32.4,23.0,30.33,West,263,0.0,0.0,68,0.00,,SKC,0.00,VWS V12.07,2013-01-31 13:30:00,
2013-01-31 07:00:00,32.4,23.0,30.34,West,263,0.0,0.0,68,0.00,,SKC,0.00,VWS V12.07,2013-01-31 14:00:00,
2013-01-31 07:30:00,32.8,23.4,30.34,West,263,0.0,0.0,68,0.00,,SKC,0.00,VWS V12.07,2013-01-31 14:30:00,
2013-01-31 08:00:00,33.1,23.4,30.34,West,263,0.0,0.0,67,0.00,,SKC,0.00,VWS V12.07,2013-01-31 15:00:00,
2013-01-31 08:30:00,32.9,23.2,30.34,West,263,0.0,0.0,67,0.00,,SKC,0.00,VWS V12.07,2013-01-31 15:30:00,
2013-01-31 09:00:00,32.5,22.4,30.36,West,263,0.0,0.0,66,0.00,,SKC,0.00,VWS V12.07,2013-01-31 16:00:00,
2013-01-31 09:30:00,35.0,23.3,30.34,West,263,0.0,0.0,62,0.00,,SKC,0.00,VWS V12.07,2013-01-31 16:30:00,
2013-01-31 10:00:00,35.8,22.9,30.33,West,263,0.0,0.0,59,0.00,,SKC,0.00,VWS V12.07,2013-01-31 17:00:00,
2013-01-31 10:30:00,36.3,23.4,30.35,West,263,0.0,0.0,59,0.01,,SKC,0.01,VWS V12.07,2013-01-31 17:30:00,
2013-01-31 11:00:00,36.0,24.3,30.35,West,263,0.0,0.0,62,0.02,,SKC,0.02,VWS V12.07,2013-01-31 18:00:00,
2013-01-31 11:30:00,37.2,24.2,30.35,West,263,0.0,0.0,59,0.03,,SKC,0.03,VWS V12.07,2013-01-31 18:30:00,
2013-01-31 12:00:00,38.6,23.0,30.33,West,263,0.0,0.0,53,0.06,,SKC,0.06,VWS V12.07,2013-01-31 19:00:00,
2013-01-31 12:30:00,38.0,23.7,30.31,NE,46,0.0,1.0,56,0.09,,SKC,0.11,VWS V12.07,2013-01-31 19:30:00,
2013-01-31 13:01:00,37.8,24.0,30.31,NE,44,0.0,1.0,57,0.13,,SKC,0.15,VWS V12.07,2013-01-31 20:01:00,
2013-01-31 13:30:00,38.0,23.7,30.30,East,80,0.0,4.0,56,0.10,,SKC,0.18,VWS V12.07,2013-01-31 20:30:00,
2013-01-31 14:01:00,38.5,23.3,30.29,ENE,77,0.0,4.0,54,0.13,,SKC,0.21,VWS V12.07,2013-01-31 21:01:00,
2013-01-31 14:30:00,38.9,23.2,30.28,ENE,75,0.0,1.0,53,0.07,,SKC,0.23,VWS V12.07,2013-01-31 21:30:00,
2013-01-31 15:00:00,38.0,22.9,30.28,East,89,0.0,4.0,54,0.10,,SKC,0.26,VWS V12.07,2013-01-31 22:00:00,
2013-01-31 15:30:00,38.3,23.1,30.28,East,94,0.0,3.0,54,0.06,,SKC,0.28,VWS V12.07,2013-01-31 22:30:00,
2013-01-31 16:00:00,37.6,24.6,30.28,East,96,0.0,4.0,59,0.09,,SKC,0.31,VWS V12.07,2013-01-31 23:00:00,
2013-01-31 16:30:00,37.3,24.3,30.28,East,100,0.0,3.0,59,0.05,,SKC,0.32,VWS V12.07,2013-01-31 23:30:00,
2013-01-31 17:00:00,36.8,24.6,30.29,East,97,0.0,3.0,61,0.07,,SKC,0.34,VWS V12.07,2013-02-01 00:00:00,
2013-01-31 17:30:00,35.8,24.8,30.30,East,97,0.0,0.0,64,0.02,,SKC,0.34,VWS V12.07,2013-02-01 00:30:00,
2013-01-31 18:00:00,33.8,24.0,30.32,East,97,0.0,0.0,67,0.02,,SKC,0.34,VWS V12.07,2013-02-01 01:00:00,
2013-01-31 18:30:00,32.2,23.5,30.33,East,97,0.0,0.0,70,0.00,,SKC,0.34,VWS V12.07,2013-02-01 01:30:00,
2013-01-31 19:01:00,32.1,23.4,30.34,East,97,0.0,0.0,70,0.00,,SKC,0.34,VWS V12.07,2013-02-01 02:01:00,
2013-01-31 19:30:00,32.1,23.4,30.34,East,97,0.0,0.0,70,0.00,,SKC,0.34,VWS V12.07,2013-02-01 02:30:00,
2013-01-31 20:00:00,31.8,23.8,30.33,East,97,0.0,0.0,72,0.00,,SKC,0.34,VWS V12.07,2013-02-01 03:00:00,
2013-01-31 20:30:00,31.8,23.1,30.32,East,97,0.0,0.0,70,0.00,,SKC,0.34,VWS V12.07,2013-02-01 03:30:00,
2013-01-31 21:00:00,30.7,21.8,30.33,East,97,0.0,0.0,69,0.00,,SKC,0.34,VWS V12.07,2013-02-01 04:00:00,
2013-01-31 21:30:00,30.7,21.4,30.31,East,97,0.0,0.0,68,0.00,,SKC,0.34,VWS V12.07,2013-02-01 04:30:00,
2013-01-31 22:00:00,31.8,21.8,30.29,East,97,0.0,0.0,66,0.00,,SKC,0.34,VWS V12.07,2013-02-01 05:00:00,
2013-01-31 22:30:00,31.0,21.7,30.29,East,97,0.0,0.0,68,0.00,,SKC,0.34,VWS V12.07,2013-02-01 05:30:00,
2013-01-31 23:00:00,30.9,21.2,30.29,East,97,0.0,0.0,67,0.00,,SKC,0.34,VWS V12.07,2013-02-01 06:00:00,
2013-01-31 23:30:00,30.4,21.1,30.27,East,97,0.0,0.0,68,0.00,,SKC,0.34,VWS V12.07,2013-02-01 06:30:00,